Hourly Weather Hrazdan

Today, 4 July, Saturday

Time Temperature Precipitation Wind Pressure Humidity
00:00 +13°C° 0.1 mm 2 mps 614 mmHg 85%
01:00 +13°C° 0 mm 2 mps 614 mmHg 85%
02:00 +13°C° 0 mm 2 mps 614 mmHg 85%
03:00 +13°C° 0 mm 2 mps 613 mmHg 85%
04:00 +14°C° 0 mm 1 mps 614 mmHg 84%
05:00 +15°C° 0 mm 1 mps 614 mmHg 83%
06:00 +15°C° 0 mm 1 mps 615 mmHg 82%
07:00 +18°C° 0.4 mm 1 mps 615 mmHg 78%
08:00 +18°C° 0.4 mm 2 mps 616 mmHg 74%
09:00 +20°C° 0 mm 2 mps 616 mmHg 70%
10:00 +21°C° 1.4 mm 2 mps 616 mmHg 68%
11:00 +21°C° 1.4 mm 2 mps 616 mmHg 65%
12:00 +23°C° 1.4 mm 2 mps 616 mmHg 63%
13:00 +23°C° 1 mm 2 mps 616 mmHg 62%
14:00 +23°C° 1 mm 2 mps 615 mmHg 62%
15:00 +23°C° 1 mm 2 mps 615 mmHg 61%
16:00 +23°C° 0.7 mm 2 mps 615 mmHg 66%
17:00 +21°C° 0.7 mm 2 mps 615 mmHg 70%
18:00 +20°C° 0.7 mm 2 mps 614 mmHg 75%
19:00 +19°C° 0.3 mm 2 mps 614 mmHg 77%
20:00 +17°C° 0.3 mm 2 mps 614 mmHg 79%
21:00 +15°C° 0.3 mm 2 mps 614 mmHg 81%
22:00 +15°C° 0 mm 2 mps 613 mmHg 82%
23:00 +14°C° 0 mm 2 mps 613 mmHg 83%

Tomorrow, 5 July, Sunday

Time Temperature Precipitation Wind Pressure Humidity
00:00 +14°C° 0 mm 2 mps 613 mmHg 84%
01:00 +13°C° 0 mm 2 mps 612 mmHg 83%
02:00 +13°C° 0 mm 2 mps 612 mmHg 83%
03:00 +13°C° 0 mm 2 mps 612 mmHg 82%
04:00 +13°C° 0 mm 2 mps 612 mmHg 82%
05:00 +14°C° 0 mm 2 mps 612 mmHg 82%
06:00 +14°C° 0 mm 2 mps 613 mmHg 82%
07:00 +16°C° 0 mm 2 mps 613 mmHg 77%
08:00 +18°C° 0 mm 2 mps 614 mmHg 73%
09:00 +19°C° 0 mm 2 mps 614 mmHg 68%
10:00 +20°C° 0.3 mm 2 mps 614 mmHg 67%
11:00 +21°C° 0.3 mm 3 mps 614 mmHg 66%
12:00 +21°C° 0.3 mm 3 mps 614 mmHg 65%
13:00 +21°C° 0.6 mm 3 mps 613 mmHg 66%
14:00 +21°C° 0.6 mm 3 mps 613 mmHg 68%
15:00 +21°C° 0.6 mm 3 mps 613 mmHg 69%
16:00 +20°C° 0.9 mm 3 mps 612 mmHg 72%
17:00 +20°C° 0.9 mm 3 mps 612 mmHg 74%
18:00 +19°C° 0.9 mm 3 mps 612 mmHg 77%
19:00 +17°C° 0.1 mm 3 mps 612 mmHg 79%
20:00 +16°C° 0.1 mm 2 mps 611 mmHg 81%
21:00 +15°C° 0.1 mm 2 mps 611 mmHg 82%
22:00 +14°C° 0 mm 2 mps 611 mmHg 81%
23:00 +14°C° 0 mm 2 mps 611 mmHg 80%

Day after tomorrow, 6 July, Monday

Time Temperature Precipitation Wind Pressure Humidity
00:00 +14°C° 0 mm 2 mps 611 mmHg 79%
01:00 +13°C° 0 mm 2 mps 611 mmHg 78%
02:00 +13°C° 0 mm 2 mps 611 mmHg 76%
03:00 +13°C° 0 mm 2 mps 611 mmHg 75%
04:00 +13°C° 0 mm 2 mps 611 mmHg 75%
05:00 +14°C° 0 mm 2 mps 611 mmHg 75%
06:00 +14°C° 0 mm 2 mps 611 mmHg 75%
07:00 +16°C° 0 mm 2 mps 612 mmHg 69%
08:00 +18°C° 0 mm 2 mps 613 mmHg 64%
09:00 +20°C° 0 mm 2 mps 613 mmHg 58%
10:00 +20°C° 0 mm 2 mps 613 mmHg 56%
11:00 +21°C° 0 mm 3 mps 613 mmHg 55%
12:00 +22°C° 0 mm 3 mps 613 mmHg 54%
13:00 +22°C° 0.1 mm 3 mps 613 mmHg 55%
14:00 +22°C° 0.1 mm 3 mps 613 mmHg 57%
15:00 +22°C° 0.1 mm 3 mps 613 mmHg 59%
16:00 +22°C° 0.2 mm 3 mps 612 mmHg 62%
17:00 +21°C° 0.2 mm 3 mps 612 mmHg 65%
18:00 +20°C° 0.2 mm 3 mps 612 mmHg 68%
19:00 +18°C° 0 mm 3 mps 611 mmHg 69%
20:00 +17°C° 0 mm 3 mps 611 mmHg 70%
21:00 +15°C° 0 mm 2 mps 611 mmHg 71%
22:00 +15°C° 0 mm 2 mps 611 mmHg 70%
23:00 +15°C° 0 mm 2 mps 611 mmHg 69%

7 July, Tuesday

Time Temperature Precipitation Wind Pressure Humidity
00:00 +14°C° 0 mm 2 mps 611 mmHg 68%
01:00 +14°C° 0 mm 2 mps 611 mmHg 68%
02:00 +14°C° 0 mm 2 mps 611 mmHg 68%
03:00 +14°C° 0 mm 2 mps 611 mmHg 69%
04:00 +14°C° 0 mm 2 mps 611 mmHg 69%
05:00 +15°C° 0 mm 2 mps 611 mmHg 70%
06:00 +16°C° 0 mm 2 mps 611 mmHg 71%
07:00 +18°C° 0 mm 2 mps 612 mmHg 65%
08:00 +19°C° 0 mm 2 mps 613 mmHg 60%
09:00 +21°C° 0 mm 2 mps 613 mmHg 55%
10:00 +23°C° 0 mm 2 mps 614 mmHg 53%
11:00 +24°C° 0 mm 2 mps 614 mmHg 52%
12:00 +25°C° 0 mm 2 mps 614 mmHg 50%
13:00 +25°C° 0.1 mm 2 mps 613 mmHg 50%
14:00 +26°C° 0.1 mm 2 mps 613 mmHg 50%
15:00 +26°C° 0.1 mm 2 mps 613 mmHg 50%
16:00 +25°C° 0.2 mm 2 mps 613 mmHg 56%
17:00 +25°C° 0.2 mm 2 mps 612 mmHg 61%
18:00 +24°C° 0.2 mm 2 mps 612 mmHg 67%
19:00 +21°C° 0 mm 2 mps 612 mmHg 69%
20:00 +19°C° 0 mm 2 mps 611 mmHg 72%
21:00 +17°C° 0 mm 2 mps 611 mmHg 74%
22:00 +17°C° 0 mm 2 mps 611 mmHg 72%
23:00 +18°C° 0 mm 2 mps 611 mmHg 70%

8 July, Wednesday

Time Temperature Precipitation Wind Pressure Humidity
00:00 +18°C° 0 mm 2 mps 611 mmHg 67%
01:00 +17°C° 0 mm 2 mps 611 mmHg 68%
02:00 +17°C° 0 mm 2 mps 611 mmHg 68%
03:00 +16°C° 0 mm 1 mps 611 mmHg 69%
04:00 +18°C° 0 mm 1 mps 611 mmHg 70%
05:00 +18°C° 0 mm 1 mps 611 mmHg 70%
06:00 +19°C° 0 mm 1 mps 612 mmHg 70%
07:00 +21°C° 0 mm 1 mps 612 mmHg 65%
08:00 +23°C° 0 mm 1 mps 613 mmHg 59%
09:00 +25°C° 0 mm 1 mps 613 mmHg 53%
10:00 +26°C° 0 mm 1 mps 613 mmHg 50%
11:00 +27°C° 0 mm 1 mps 614 mmHg 48%
12:00 +28°C° 0 mm 1 mps 614 mmHg 45%
13:00 +26°C° 0.3 mm 2 mps 613 mmHg 50%
14:00 +25°C° 0.3 mm 2 mps 612 mmHg 56%
15:00 +24°C° 0.3 mm 3 mps 612 mmHg 61%
16:00 +24°C° 0.2 mm 2 mps 612 mmHg 63%
17:00 +24°C° 0.2 mm 2 mps 612 mmHg 66%
18:00 +24°C° 0.2 mm 1 mps 612 mmHg 68%
19:00 +21°C° 0.4 mm 2 mps 612 mmHg 71%
20:00 +20°C° 0.4 mm 3 mps 612 mmHg 74%
21:00 +18°C° 0.4 mm 3 mps 612 mmHg 77%
22:00 +18°C° 0.1 mm 3 mps 612 mmHg 76%
23:00 +17°C° 0.1 mm 2 mps 612 mmHg 76%

9 July, Thursday

Time Temperature Precipitation Wind Pressure Humidity
00:00 +17°C° 0.1 mm 2 mps 612 mmHg 76%
01:00 +16°C° 0 mm 2 mps 611 mmHg 74%
02:00 +16°C° 0 mm 2 mps 611 mmHg 73%
03:00 +16°C° 0 mm 2 mps 611 mmHg 72%
04:00 +16°C° 0.1 mm 1 mps 611 mmHg 73%
05:00 +18°C° 0.1 mm 1 mps 612 mmHg 74%
06:00 +18°C° 0.1 mm 1 mps 612 mmHg 75%
07:00 +20°C° 0.2 mm 1 mps 613 mmHg 71%
08:00 +21°C° 0.2 mm 1 mps 613 mmHg 68%
09:00 +23°C° 0.2 mm 2 mps 614 mmHg 64%
10:00 +24°C° 0.8 mm 2 mps 614 mmHg 61%
11:00 +24°C° 0.8 mm 2 mps 614 mmHg 58%
12:00 +25°C° 0.8 mm 2 mps 614 mmHg 55%
13:00 +25°C° 0.9 mm 2 mps 614 mmHg 56%
14:00 +25°C° 0.9 mm 3 mps 614 mmHg 57%
15:00 +25°C° 0.9 mm 3 mps 613 mmHg 58%
16:00 +22°C° 2.9 mm 3 mps 613 mmHg 69%
17:00 +19°C° 2.9 mm 3 mps 612 mmHg 79%
18:00 +17°C° 2.9 mm 4 mps 611 mmHg 90%
19:00 +16°C° 1.3 mm 3 mps 612 mmHg 88%
20:00 +16°C° 1.3 mm 2 mps 612 mmHg 87%
21:00 +16°C° 1.3 mm 2 mps 613 mmHg 86%
22:00 +15°C° 0 mm 2 mps 613 mmHg 86%
23:00 +15°C° 0 mm 2 mps 612 mmHg 85%
Show more